Hermiston, OR

1:07 PM PDT on July 24, 2017 (GMT -0700)
Hermiston Municipal

Weather History for KHRI - May, 2014

Change the Weather History Date:

Thursday, May 15, 2014

  Actual Average Record
Temperature  
Mean Temperature 70 °F 60 °F  
Max Temperature 91 °F 75 °F 97 °F (1939)
Min Temperature 48 °F 45 °F 31 °F (1932)
Cooling Degree Days 4    
Growing Degree Days 20 (Base 50)    
Moisture  
Dew Point 45 °F    
Average Humidity 47    
Maximum Humidity 86    
Minimum Humidity 14    
Precipitation  
Precipitation 0.00 in 0.03 in 0.56 in (1994)
Month to date precipitation 0.44  
Year to date precipitation 4.86  
Sea Level Pressure  
Sea Level Pressure 29.99 in    
Wind  
Wind Speed 4 mph (SSE)    
Max Wind Speed 9 mph    
Max Gust Speed -    
Visibility 10 miles    
Events      
T = Trace of Precipitation, MM = Missing Value Source: NWS Daily Summary

Daily Weather History Graph

Daily Weather History Graph

Search for Another Location

Airport or City:

Trip Planner

Search our weather history database for the weather conditions in past years. The results will help you decide how hot, cold, wet, or windy it might be!

Date:

Astronomy

May. 15, 2014 Rise Set
Actual Time 5:25 AM PDT 8:22 PM PDT
Civil Twilight 4:50 AM PDT 8:57 PM PDT
Nautical Twilight 4:05 AM PDT 9:42 PM PDT
Astronomical Twilight 3:12 AM PDT 10:35 PM PDT
Moon 9:35 PM PDT (5/15) 6:17 AM PDT (5/15)
Length of Visible Light 16h 06m
Length of Day
14h 56m
Full, 99% of the Moon is Illuminated
May 15
Full
May 21
Last Quarter
May 28
New
Jun 5
First Quarter
Jun 12
Full

Hourly Weather History & Observations

Time (PDT) Temp. Dew Point Humidity Pressure Visibility Wind Dir Wind Speed Gust Speed Precip Events Conditions
12:53 AM 53.1 °F 46.9 °F 80% 30.10 in 10.0 mi East 4.6 mph - N/A   Clear
1:53 AM 52.0 °F 46.0 °F 80% 30.09 in 10.0 mi East 4.6 mph - N/A   Clear
2:53 AM 48.0 °F 43.0 °F 83% 30.09 in 10.0 mi SSE 6.9 mph - N/A   Clear
3:53 AM 48.9 °F 45.0 °F 86% 30.08 in 10.0 mi SE 5.8 mph - N/A   Clear
4:53 AM 50.0 °F 44.1 °F 80% 30.07 in 10.0 mi Calm Calm - N/A   Clear
5:53 AM 48.9 °F 44.1 °F 83% 30.09 in 10.0 mi South 4.6 mph - N/A   Clear
6:53 AM 55.0 °F 46.0 °F 72% 30.07 in 10.0 mi SE 3.5 mph - N/A   Clear
7:53 AM 61.0 °F 48.9 °F 64% 30.07 in 10.0 mi NW 3.5 mph - N/A   Clear
8:53 AM 66.9 °F 48.9 °F 52% 30.06 in 10.0 mi WNW 3.5 mph - N/A   Clear
9:53 AM 71.1 °F 46.0 °F 41% 30.05 in 10.0 mi Variable 4.6 mph - N/A   Clear
10:53 AM 75.9 °F 46.0 °F 35% 30.04 in 10.0 mi Variable 4.6 mph - N/A   Clear
12:53 PM 84.0 °F 45.0 °F 25% 29.99 in 10.0 mi Variable 3.5 mph - N/A   Clear
1:53 PM 88.0 °F 41.0 °F 19% 29.96 in 10.0 mi Variable 4.6 mph - N/A   Clear
2:53 PM 89.1 °F 36.0 °F 15% 29.94 in 10.0 mi Calm Calm - N/A   Clear
3:53 PM 90.0 °F 35.1 °F 14% 29.92 in 10.0 mi Variable 3.5 mph - N/A   Clear
4:53 PM 91.0 °F 35.1 °F 14% 29.90 in 10.0 mi Calm Calm - N/A   Clear
5:53 PM 89.1 °F 39.9 °F 18% 29.88 in 10.0 mi ENE 3.5 mph - N/A   Clear
6:53 PM 84.0 °F 45.0 °F 25% 29.88 in 10.0 mi NE 5.8 mph - N/A   Clear
7:53 PM 78.1 °F 48.0 °F 35% 29.88 in 10.0 mi Calm Calm - N/A   Clear
8:53 PM 78.1 °F 46.0 °F 32% 29.90 in 10.0 mi West 5.8 mph - N/A   Clear
9:53 PM 78.1 °F 51.1 °F 39% 29.91 in 10.0 mi WSW 9.2 mph - N/A   Clear
10:53 PM 73.0 °F 50.0 °F 44% 29.91 in 10.0 mi South 8.1 mph - N/A   Partly Cloudy
11:53 PM 71.1 °F 48.0 °F 44% 29.91 in 10.0 mi SW 9.2 mph - N/A   Partly Cloudy